Location: Krakow
(50.0830°N, 19.9170°E)
Time: 14:00:31
(UTC+01:00)

Vanguard 2 - Pass Details

Date: 12 December 2023
Orbit: 553 x 2919 km, 32.9° (Epoch: 24 February)

Event Time Altitude Azimuth Distance (km) Brightness Sun altitude
Rises 18:10:47 0° 222° (SW) 6,196 12.9 -23.3°
Reaches altitude 10° 18:15:12 10° 214° (SSW) 5,417 12.3 -24.0°
Maximum altitude 18:29:18 34° 158° (SSE) 4,086 11.0 -26.2°
Enters shadow 18:36:24 26° 123° (ESE) 4,467 10.9 -27.4°
